www.pogodaiklimat.ru
ПОГОДА в Джексоне
Время
и дата
21:16 19.04
21:53 19.04
22:21 19.04
22:33 19.04
22:48 19.04
22:50 19.04
22:53 19.04
23:01 19.04
23:06 19.04
23:13 19.04
23:15 19.04
23:22 19.04
23:53 19.04
00:53 20.04
01:53 20.04
02:53 20.04
03:53 20.04
04:53 20.04
05:53 20.04
06:53 20.04
07:53 20.04
08:53 20.04
09:53 20.04
10:53 20.04
11:53 20.04
12:53 20.04
13:53 20.04
14:53 20.04
15:53 20.04
16:53 20.04
17:53 20.04
18:53 20.04
19:53 20.04
20:53 20.04
21:53 20.04
22:53 20.04
00:53 21.04
01:53 21.04
02:53 21.04
03:53 21.04
04:53 21.04
05:53 21.04
06:53 21.04
08:53 21.04
10:53 21.04
11:53 21.04
12:53 21.04
13:53 21.04
Ветер
(напр.,м/с)
Видим. Явления Облачность Т
(С)
Тd
(С)
f
(%)
Тe
(С)
Тes
(С)
Комфортность P
(гПа)
Po
(гПа)
Тmin
(С)
Tmax
(С)
R
(мм)
R24
(мм)
S
(см)
штиль 0 16 км 10/10 420 м +12.8 +11.7 93 +12 +12 969.9
штиль 0 8 км дымка 10/10 60 м +13.3 +12.2 93 +13 +13 1019.3 969.9
штиль 0 3 км дымка 10/10 30 м +12.8 +12.2 96 +12 +12 969.9
штиль 0 1 км дымка 10/10 30 м +12.8 +12.2 96 +12 +12 969.9
штиль 0 3 км дымка 10/10 30 м +13.0 +12.0 94 +12 +12 969.6
штиль 0 5 км дымка 10/10 30 м +13.0 +12.0 94 +12 +12 969.6
штиль 0 6 км дымка 10/10 30 м +12.8 +12.2 96 +12 +12 1018.8 969.6
штиль 0 3 км дымка 10/10 30 м +12.8 +12.2 96 +12 +12 969.6
штиль 0 1 км дымка 10/8 30 m
[Ac]
+12.8 +12.2 96 +12 +12 969.6
штиль 0 3 км дымка 10/8 30 m
[Ac]
+12.8 +12.2 96 +12 +12 969.6
штиль 0 5 км дымка 10/8 30 m
[Ac]
+12.8 +12.2 96 +12 +12 969.6
штиль 0 10 км дымка 10/5 60 m
[Ac]
+12.8 +12.2 96 +12 +12 969.6
З 2 10 км дымка 10/8 30 m
[Ac]
+12.8 +11.7 93 +12 +12 1019.3 969.9
СЗ 2 16 км 10/8 120 m
[Ac]
+12.8 +11.1 89 +12 +12 1018.9 969.6 +12.2 +13.3
нст 2 16 км 10/8 1650 m
[Ac]
+12.2 +10.0 86 +11 +11 1019.2 969.9
штиль 0 16 км 10/8 1650 m
[Ac]
+11.1 +7.2 77 +11 +11 1019.2 969.6
нст 3 16 км 2/2 1650 м +10.6 +4.4 65 +9 +9 1019.5 969.9
С 2 16 км ясно +9.4 +2.2 61 +8 +8 1019.8 969.9
СЗ 2 16 км ясно +8.9 +1.7 61 +7 +7 1020.8 970.9
С 2 16 км 8/0 3600 m
[Ac]
+8.9 +2.2 63 +7 +7 1021.7 971.9 +8.9 +12.2 5.1
СЗ 3 16 км 2/0 3000 m
[Ac]
+10.0 +1.7 56 +8 +9 1022.2 972.2
СЗ 3 16 км ясно +11.1 +1.7 52 +10 +13 1022.4 972.5
нст 2 16 км ясно +13.3 +1.1 43 +13 +21 1022.2 972.5
нст 2 16 км ясно +14.4 -0.6 36 +14 +26 опасность
простуды
1021.8 972.2
нст 2 16 км ясно +15.6 +0.6 36 +16 +31 опасность
простуды
1021.0 971.6
16 км ясно +16.1 0.0 33 +16 +40 опасность
простуды
1020.4 970.9 +8.9 +17.2
нст 3
{8}
16 км ясно +17.8 +1.1 32 +18 +33 опасность
простуды
1019.8 970.3
З 4 16 км ясно +17.8 -1.1 28 +18 +28 1018.9 969.6
нст 3 16 км ясно +17.8 +0.6 31 +18 +28 1018.4 969.0
З 4
{9}
16 км ясно +16.7 0.0 32 +16 +22 1018.2 968.7
нст 2 16 км ясно +15.6 +0.6 36 +16 +20 1018.4 968.7
СЗ 3 16 км ясно +13.9 -1.1 36 +13 +14 1018.2 968.7 +13.9 +18.3
СЗ 2 16 км ясно +13.3 -1.7 35 +13 +13 1018.3 968.7
СЗ 3 16 км ясно +11.7 -2.8 36 +11 +11 1018.9 969.3
СЗ 3 16 км ясно +11.1 -2.2 39 +10 +10 1019.6 969.9
С 3 16 км ясно +10.0 -2.2 42 +8 +8 1019.1 969.3
штиль 0 16 км ясно +8.9 -2.8 44 +9 +9 1018.7 969.0 +8.9 +15.6
нст 2 16 км ясно +8.3 -2.8 45 +7 +7 1018.7 969.3
СВ 2 16 км ясно +6.7 -1.7 55 +5 +5 1018.5 969.0
СВ 2 16 км ясно +6.7 -1.7 55 +5 +5 1019.0 969.3
штиль 0 16 км ясно +6.1 -1.1 60 +6 +6 1019.0 969.3
штиль 0 16 км ясно +5.6 -1.7 59 +5 +5 1019.1 969.3
нст 2 16 км 8/0 3300 m
[Ac]
+6.1 -1.1 60 +4 +4 1019.6 969.6 +5.6 +8.9
штиль 0 16 км ясно +7.8 -1.7 51 +8 +13 1019.9 969.9
СЗ 3 16 км ясно +8.9 -1.7 47 +7 +17 опасность
простуды
1019.5 969.6
нст 2 16 км 8/8 1380 м +10.6 -1.1 44 +10 +13 969.0
нст 2 16 км 8/8 1500 м +12.8 +0.6 43 +12 +16 1018.5 968.7 +6.1 +12.8
нст 2
{8}
16 км 5/5 1650 м +12.8 -1.1 38 +12 +21 1018.1 968.3
Местоположение метеостанции Carroll Airport: широта 37.5914 долгота -83.3144 высота над уровнем моря 421 м.
В архиве по умолчанию представлена погода в Джексоне за последние 1-2 суток. Обновление информации о фактической погоде в базе происходит ежечасно! Архивные данные за месяц целиком и за предыдущие месяцы Вы можете получить, выбрав интересующий диапазон дат из раскрывающегося списка и нажав кнопку "Ввод!".
Внимание! Архив погоды МЕТАР в базе сайта по станциям, не включенным в климатический монитор, хранится не более 60 дней. Нет смысла пытаться выбрать более раннюю дату.
*Определитесь, кто Вы:
Внимание! Время в таблицах - местное (без учета летнего времени). Для получения всемирного времени необходимо вычесть поправку, которая равна -5 ч.
Смотрите также архив погоды в соседних городах и на ближайших метеорологических станциях:
Партнеры нашего сайта:      
Пояснения к столбцам:
  • Ветер - указаны скорость ветра в м/с - средняя за 10 мин, порывы в срок и между сроками (в фигурных скобках) и направление, откуда дует ветер: С - северный,
  • СВ - северо-восточный, В - восточный, ЮВ - юго-восточный, Ю - южный, ЮЗ - юго-западный, З - западный, СЗ - северо-западный.
  • Видимость - горизонтальная дальность видимости в метрах или километрах. При видимости от 1 до 10 км при отсутствии осадков обычно наблюдается дымка, при ухудшении видимости до 1 км и менее - туман. В сухую погоду видимость может ухудшаться дымом, пылью или мглою.
  • Явления - указаны атмосферные явления, наблюдавшиеся в срок или в последний час перед сроком; фигурными скобками обозначены явления, наблюдавшиеся между сроками (за 1-3 часа до срока); квадратными скобками обозначены град или гололедные отложения с указанием их диаметра в мм.
  • Облачность - указаны через наклонную черту общая и нижняя облачность в баллах и высота нижней границы облаков в метрах; квадратными скобками обозначены формы облаков: Ci - перистые, Cs - перисто-слоистые, Cc - перисто-кучевые, Ac - высококучевые, As - высокослоистые, Sc - слоисто-кучевые, Ns - слоисто-дождевые, Cu - кучевые, Cb - кучево-дождевые. Подробнее классификацию облаков см. в Атласе облаков (PDF).
  • T - Температура воздуха - температура, измеренная на высоте 2 м над землей.
  • Td - Температура точки росы - температура, при понижении до которой содержащийся в воздухе водяной пар достигнет насыщения.
  • f - Относительная влажность воздуха - влажноcть воздуха, измеренная на высоте 2 м над землей.
  • Te - Эффективная температура - температура, которую ощущает одетый по сезону человек в тени. Характеристика душности погоды. При расчете учитывается влияние влажности воздуха и скорости ветра на теплоощущения человека.
  • Tes - Эффективная температура на солнце - температура, которую ощущает человек, с поправкой на солнечный нагрев. Характеристика знойности погоды. Зависит от высоты солнца над горизонтом, облачности и скорости ветра. Ночью, в пасмурную погоду, а также при ветре 12 м/с и более поправка равна нулю.
  • P - Атмосферное давление - приведенное к уровню моря атмосферное давление.
  • Po - Атмосферное давление - измеренное на уровне метеостанции атмосферное давление.
  • Tmin - Минимальная температура - минимум температуры воздуха на высоте 2 м над землей.
  • Tmax - Максимальная температура - максимум температуры воздуха на высоте 2 м над землей.
  • R - Количество осадков - Количество выпавших осадков за период времени, мм. При наведении курсора мыши на число - период времени, за который выпало указанное количество осадков.
  • R24 - Количество осадков - Количество выпавших осадков за 24 часа, мм.
  • S - Снежный покров - Высота снежного покрова, см. При наведении курсора мыши на число - состояние снежного покрова и степень покрытия местности в баллах.